Flag for U.S.A. Weather past 2 weeks in Racine, Wisconsin, U.S.A.

Now
86 °F

Scattered clouds.


Feels Like: 95 °F
Forecast: 62 / 71 °F
Wind: 7 mph from West

Location: Batten International Airport

Current Time: Jul 22, 2014 at 8:15:24 PM

Latest Report: Jul 22, 2014 at 6:53 PM


Visibility: 9 mi

Pressure: 29.92 "Hg

Humidity: 70%

Dew point: 75 °F

Location of RacineLocation

Historic Weather in Racine — Graph

°F

Racine temperature yesterday

Maximum temperature yesterday: 81 °F (at 11:53 AM)
Minimum temperature yesterday: 62 °F (at 3:53 AM)
Average temperature yesterday: 73 °F

Past Weeks' High & Low Weather Summary

 TemperatureHumidityPressure
High86 °F (Jul 22, 11:53 AM)96% (Jul 10, 5:53 AM)30.22 "Hg (Jul 10, 5:53 AM)
Low54 °F (Jul 15, 5:53 AM)35% (Jul 14, 3:53 PM)29.58 "Hg (Jul 8, 6:53 AM)
Average69 °F70%29.99 "Hg
* Reported Jul 7 11:53 AM — Jul 22 11:53 AM, Racine, Weather by CustomWeather, © 2014

Note: Actual official high and low records may vary slightly from our data, if they occured in-between our weather recording intervals... More about our weather records

Advertising

Racine weather history for previous 24 hours

 ConditionsComfort  
Time TempWeatherWind HumidityBarometerVisibility
11:53 AM
Jul 22
86 °FPartly sunny.12 mph59%29.96 "Hg10 mi
10:53 AM84 °FScattered clouds.14 mph61%29.96 "Hg10 mi
9:53 AM81 °FSunny.10 mph65%29.97 "Hg10 mi
8:53 AM79 °FSunny.17 mph67%29.98 "Hg10 mi
7:53 AM75 °FSunny.13 mph71%29.99 "Hg10 mi
6:53 AM73 °FSunny.13 mph76%30.01 "Hg10 mi
5:53 AM70 °FClear.6 mph84%30.03 "Hg10 mi
4:53 AM70 °FClear.7 mph84%30.02 "Hg10 mi
3:53 AM71 °FClear.10 mph81%30.02 "Hg10 mi
2:53 AM72 °FClear.8 mph78%30.03 "Hg10 mi
1:53 AM71 °FClear.7 mph81%30.04 "Hg10 mi
12:53 AM72 °FClear.5 mph78%30.04 "Hg10 mi
11:53 PM
Jul 21
70 °FClear.3 mph84%30.04 "Hg10 mi
10:53 PM73 °FClear.5 mph76%30.04 "Hg10 mi
9:53 PM74 °FClear.5 mph71%30.05 "Hg10 mi
8:53 PM76 °FSunny.9 mph67%30.05 "Hg10 mi
Weather by CustomWeather, © 2014

See weather overviewHow to use our weather pages